{"data":{"norad_id":47381,"intl_designator":"2021-005AJ","name":"STARLINK-2101","alt_names":[],"object_type":"PAYLOAD","status":"ACTIVE","operator":null,"country":"US","launch_date":"2021-01-20","launch_site_code":"AFETR","launch_vehicle":null,"mission":null,"orbit_class":"UNKNOWN","rcs_meters":null,"size_class":null,"mass_kg":null,"dimensions":null,"purposes":["comms"],"wikipedia_slug":null,"has_3d_model":false,"image_url":null,"decayed_at":null,"tle_current":{"epoch":"2026-05-24T23:59:09.438720Z","epoch_age_seconds":78324,"freshness":"FRESH","line1":"1 47381U 21005AJ  26144.99941480  .00012052  00000+0  39949-3 0  9998","line2":"2 47381  53.1599  42.5035 0001244  80.8402 279.2740 15.31700596295070","mean_motion":15.31700596,"eccentricity":0.0001244,"inclination_deg":53.1599,"raan_deg":42.5035,"arg_perigee_deg":80.8402,"mean_anomaly_deg":279.274,"bstar":0.00039949,"rev_number":29507,"period_min":94.013151379619,"perigee_km":469.88621850405,"apogee_km":471.59021865843,"semimajor_km":6848.8752185812,"source":"CELESTRAK","updated_at":"2026-05-25T13:38:16.550020Z"}}}